DW4159 Weather Reports


time (UTC)temp
F
wind
direction
speed
knots
gust
knots
rain 1hr
in
rain 24hr
in
rain mn
in
humidity
%
barometer
mb
20260507195849 91 270 4.3 8.7 0.00 0.00 0.00 42 1011.8
20260507195343 91 242 5.2 10.4 0.00 0.00 0.00 43 1011.9
20260507194841 91 274 4.3 10.4 0.00 0.00 0.00 44 1012.1
20260507194341 92 271 3.5 8.7 0.00 0.00 0.00 41 1012.0
20260507193841 91 270 4.3 10.4 0.00 0.00 0.00 43 1012.1
20260507193341 91 275 4.3 10.4 0.00 0.00 0.00 42 1012.2
20260507192839 91 327 4.3 10.4 0.00 0.00 0.00 44 1012.1
20260507192335 91 242 4.3 10.4 0.00 0.00 0.00 45 1012.3
20260507191834 91 315 3.5 7.8 0.00 0.00 0.00 46 1012.3
20260507191331 91 250 4.3 9.6 0.00 0.00 0.00 45 1012.5
20260507190832 90 194 5.2 9.6 0.00 0.00 0.00 45 1012.6
20260507190328 91 278 5.2 9.6 0.00 0.00 0.00 44 1012.6
20260507185823 90 279 5.2 9.6 0.00 0.00 0.00 44 1012.8
20260507185321 91 325 4.3 8.7 0.00 0.00 0.00 44 1012.8
20260507184819 90 268 4.3 8.7 0.00 0.00 0.00 42 1013.0
20260507184319 90 283 4.3 8.7 0.00 0.00 0.00 44 1013.1
20260507183815 90 266 4.3 9.6 0.00 0.00 0.00 44 1013.1
20260507183543 90 287 5.2 9.6 0.00 0.00 0.00 46 1013.3
20260507182809 90 249 5.2 11.3 0.00 0.00 0.00 49 1013.3
20260507182307 90 271 5.2 11.3 0.00 0.00 0.00 48 1013.4
20260507181808 89 322 4.3 11.3 0.00 0.00 0.00 49 1013.4
20260507181304 89 284 4.3 9.6 0.00 0.00 0.00 49 1013.5
20260507181035 90 275 4.3 10.4 0.00 0.00 0.00 48 1013.5
20260507180302 89 278 4.3 10.4 0.00 0.00 0.00 48 1013.4
20260507175803 89 267 3.5 9.6 0.00 0.00 0.00 48 1013.5
20260507175306 89 287 4.3 9.6 0.00 0.00 0.00 52 1013.5
20260507174803 89 216 3.5 9.6 0.00 0.00 0.00 50 1013.5
20260507174306 88 283 5.2 10.4 0.00 0.00 0.00 50 1013.6
20260507174302 89 268 4.3 10.4 0.00 0.00 0.00 51 1013.5
20260507173254 88 263 4.3 10.4 0.00 0.00 0.00 53 1013.5
20260507172754 88 252 4.3 8.7 0.00 0.00 0.00 51 1013.5
20260507172246 88 270 4.3 8.7 0.00 0.00 0.00 51 1013.6
20260507171747 87 276 4.3 7.8 0.00 0.00 0.00 53 1013.7
20260507171246 87 248 4.3 8.7 0.00 0.00 0.00 53 1013.7
20260507170747 87 264 5.2 8.7 0.00 0.00 0.00 55 1013.8
20260507170246 87 248 4.3 7.8 0.00 0.00 0.00 57 1013.9
20260507165747 87 270 4.3 9.6 0.00 0.00 0.00 58 1013.8
20260507165246 87 300 4.3 9.6 0.00 0.00 0.00 57 1013.9
20260507164745 87 250 4.3 10.4 0.00 0.00 0.00 55 1014.0
20260507164244 87 277 4.3 11.3 0.00 0.00 0.00 57 1014.0
20260507163741 87 269 4.3 11.3 0.00 0.00 0.00 56 1014.1
20260507163240 87 309 3.5 9.6 0.00 0.00 0.00 57 1014.1
20260507162741 87 260 3.5 8.7 0.00 0.00 0.00 57 1014.1
20260507162240 86 269 4.3 9.6 0.00 0.00 0.00 58 1014.1
20260507161739 87 247 4.3 9.6 0.00 0.00 0.00 58 1014.3
20260507161238 86 204 4.3 8.7 0.00 0.00 0.00 60 1014.4
20260507160737 86 280 3.5 8.7 0.00 0.00 0.00 62 1014.4
20260507160236 86 275 3.5 8.7 0.00 0.00 0.00 61 1014.4
20260507155736 86 272 3.5 8.7 0.00 0.00 0.00 63 1014.5
20260507155508 86 272 3.5 8.7 0.00 0.00 0.00 62 1014.5
20260507154736 85 289 3.5 9.6 0.00 0.00 0.00 63 1014.5
20260507154234 85 286 3.5 9.6 0.00 0.00 0.00 62 1014.5
20260507153734 85 276 4.3 9.6 0.00 0.00 0.00 62 1014.6
20260507153234 85 249 3.5 9.6 0.00 0.00 0.00 63 1014.5
20260507152732 85 265 3.5 8.7 0.00 0.00 0.00 63 1014.6
20260507152504 85 259 3.5 8.7 0.00 0.00 0.00 63 1014.7
20260507151732 85 272 3.5 7.8 0.00 0.00 0.00 64 1014.6
20260507151232 84 270 2.6 6.1 0.00 0.00 0.00 63 1014.7
20260507150730 85 217 2.6 5.2 0.00 0.00 0.00 65 1014.7
20260507150230 84 265 3.5 7.8 0.00 0.00 0.00 65 1014.8
20260507145730 84 241 4.3 10.4 0.00 0.00 0.00 65 1014.8
20260507145230 84 155 4.3 10.4 0.00 0.00 0.00 64 1014.8
20260507144958 84 227 3.5 7.8 0.00 0.00 0.00 63 1014.8
20260507144223 84 240 3.5 6.1 0.00 0.00 0.00 63 1014.8
20260507143722 83 247 3.5 5.2 0.00 0.00 0.00 63 1014.8
20260507143454 83 265 3.5 8.7 0.00 0.00 0.00 64 1014.9
20260507142719 83 273 3.5 8.7 0.00 0.00 0.00 65 1014.8
20260507142216 83 261 3.5 7.8 0.00 0.00 0.00 66 1014.7
20260507141716 82 198 4.3 8.7 0.00 0.00 0.00 67 1014.8
20260507141210 82 155 3.5 8.7 0.00 0.00 0.00 67 1014.9
20260507140708 82 256 4.3 8.7 0.00 0.00 0.00 66 1014.9
20260507140206 81 204 4.3 8.7 0.00 0.00 0.00 68 1014.9
20260507135706 81 267 4.3 7.8 0.00 0.00 0.00 69 1014.9
20260507135206 81 188 4.3 7.8 0.00 0.00 0.00 68 1014.9
20260507134935 81 246 4.3 8.7 0.00 0.00 0.00 71 1014.9
20260507134204 81 234 4.3 8.7 0.00 0.00 0.00 71 1014.9
20260507133704 80 225 3.5 8.7 0.00 0.00 0.00 72 1014.8
20260507133202 80 173 3.5 6.1 0.00 0.00 0.00 74 1014.9
20260507132702 80 179 4.3 6.1 0.00 0.00 0.00 74 1014.9
20260507132202 79 209 3.5 6.1 0.00 0.00 0.00 75 1014.8
20260507131659 79 236 3.5 6.1 0.00 0.00 0.00 75 1014.9
20260507131158 79 230 3.5 6.1 0.00 0.00 0.00 76 1015.0
20260507130656 79 222 2.6 6.1 0.00 0.00 0.00 77 1014.9
20260507130155 78 150 2.6 5.2 0.00 0.00 0.00 77 1014.9
20260507125655 78 181 2.6 4.3 0.00 0.00 0.00 80 1014.9
20260507125651 78 220 2.6 4.3 0.00 0.00 0.00 79 1014.9
20260507124652 77 240 1.7 3.5 0.00 0.00 0.00 80 1014.9
20260507124146 77 226 1.7 5.2 0.00 0.00 0.00 80 1014.9
20260507123645 77 171 0.9 5.2 0.00 0.00 0.00 81 1015.0
20260507123138 76 151 0.9 3.5 0.00 0.00 0.00 83 1015.1
20260507122635 76 146 1.7 2.6 0.00 0.00 0.00 82 1014.9
20260507122405 76 158 0.9 2.6 0.00 0.00 0.00 83 1014.9
20260507121633 76 158 0.9 2.6 0.00 0.00 0.00 83 1014.9
20260507121142 75 162 0.0 1.7 0.00 0.00 0.00 83 1014.9
20260507120624 75 128 0.0 1.7 0.00 0.00 0.00 84 1015.0
20260507120346 75 119 0.0 1.7 0.00 0.00 0.00 84 1014.9
20260507115542 75 282 0.0 0.9 0.00 0.00 0.00 84 1014.9
20260507115039 75 283 0.0 0.0 0.00 0.00 0.00 86 1014.9
20260507114534 74 283 0.0 0.0 0.00 0.00 0.00 89 1014.8
20260507114020 73 283 0.0 0.0 0.00 0.00 0.00 91 1014.8
20260507113448 72 283 0.0 0.0 0.00 0.00 0.00 91 1014.7
20260507112938 71 283 0.0 0.0 0.00 0.00 0.00 92 1014.8
20260507112434 70 283 0.0 0.0 0.00 0.00 0.00 92 1014.8
20260507111901 69 283 0.0 0.0 0.00 0.00 0.00 92 1014.9
20260507111347 68 283 0.0 0.9 0.00 0.00 0.00 92 1014.8
20260507110900 68 283 0.0 0.9 0.00 0.00 0.00 92 1014.6
20260507110348 68 283 0.0 0.0 0.00 0.00 0.00 92 1014.6
20260507105843 68 283 0.0 0.0 0.00 0.00 0.00 92 1014.5
20260507105343 68 283 0.0 0.0 0.00 0.00 0.00 91 1014.4
20260507104843 68 283 0.0 0.0 0.00 0.00 0.00 91 1014.3
20260507104327 68 283 0.0 0.0 0.00 0.00 0.00 91 1014.2
20260507103752 68 283 0.0 0.0 0.00 0.00 0.00 91 1014.1
20260507103243 68 283 0.0 0.0 0.00 0.00 0.00 91 1014.0
20260507102727 68 283 0.0 0.0 0.00 0.00 0.00 91 1013.9
20260507102211 69 283 0.0 0.0 0.00 0.00 0.00 91 1013.8
20260507101717 69 283 0.0 1.7 0.00 0.00 0.00 91 1013.6
20260507101713 69 283 0.0 1.7 0.00 0.00 0.00 90 1013.7
20260507100709 69 287 0.9 2.6 0.00 0.00 0.00 91 1013.6
20260507100441 69 284 0.9 2.6 0.00 0.00 0.00 90 1013.7
20260507095707 69 292 1.7 4.3 0.00 0.00 0.00 90 1013.4
20260507095156 69 273 1.7 4.3 0.00 0.00 0.00 90 1013.4
20260507094643 70 277 1.7 5.2 0.00 0.00 0.00 90 1013.3
20260507094135 70 282 2.6 7.8 0.00 0.00 0.00 90 1013.4
20260507093635 70 290 1.7 7.8 0.00 0.00 0.00 89 1013.3
20260507093139 71 219 1.7 2.6 0.00 0.00 0.00 90 1013.1
20260507093135 71 134 0.9 2.6 0.00 0.00 0.00 90 1013.1
20260507092133 70 162 1.7 2.6 0.00 0.00 0.00 90 1012.9
20260507091631 70 92 1.7 3.5 0.00 0.00 0.00 90 1012.7
20260507091131 70 113 2.6 3.5 0.00 0.00 0.00 91 1012.7
20260507090631 70 129 2.6 3.5 0.00 0.00 0.00 91 1012.8
20260507090126 70 117 1.7 3.5 0.00 0.00 0.00 91 1012.8
20260507085857 70 121 1.7 2.6 0.00 0.00 0.00 91 1012.9
20260507085127 71 123 1.7 2.6 0.00 0.00 0.00 91 1012.9
20260507084618 71 130 0.9 2.6 0.00 0.00 0.00 90 1013.1
20260507084120 71 136 0.9 1.7 0.00 0.00 0.00 90 1013.0
20260507083620 71 120 0.9 0.9 0.00 0.00 0.00 90 1013.0
20260507083109 71 115 0.9 0.9 0.00 0.00 0.00 91 1013.0
20260507082602 71 115 0.0 0.9 0.00 0.00 0.00 90 1013.0
20260507082053 71 115 0.0 0.9 0.00 0.00 0.00 91 1013.0
20260507081546 71 115 0.0 0.9 0.00 0.00 0.00 91 1013.0
20260507081043 71 115 0.0 0.9 0.00 0.00 0.00 91 1012.9
20260507080531 71 115 0.0 0.9 0.00 0.00 0.00 91 1012.9
20260507080030 71 115 0.0 0.9 0.00 0.00 0.00 91 1012.8
20260507075519 71 115 0.0 1.7 0.00 0.00 0.00 91 1012.9
20260507075015 71 115 0.9 1.7 0.00 0.00 0.00 91 1012.8
20260507074447 71 110 0.9 1.7 0.00 0.00 0.00 91 1012.8
20260507073939 71 119 0.9 1.7 0.00 0.00 0.00 91 1012.8
20260507073439 70 119 0.9 1.7 0.00 0.00 0.00 91 1012.8
20260507073200 70 119 0.0 0.9 0.00 0.00 0.00 91 1012.9
20260507072428 70 138 0.0 0.9 0.00 0.00 0.00 91 1013.1
20260507071851 70 140 0.0 0.9 0.00 0.00 0.00 91 1013.2
20260507071346 70 232 0.0 0.0 0.00 0.00 0.00 91 1013.2
20260507070854 70 232 0.0 0.0 0.00 0.00 0.00 91 1013.4
20260507070340 70 232 0.0 0.0 0.00 0.00 0.00 90 1013.5
20260507065838 70 232 0.0 0.0 0.00 0.00 0.00 91 1013.5
20260507065320 70 232 0.0 0.0 0.00 0.00 0.00 90 1013.5
20260507064820 70 232 0.0 0.9 0.00 0.00 0.00 90 1013.6
20260507064300 70 232 0.0 0.9 0.00 0.00 0.00 90 1013.6
20260507063752 70 232 0.0 0.9 0.00 0.00 0.00 90 1013.7
20260507063245 70 232 0.0 0.9 0.00 0.00 0.00 90 1013.8
20260507062743 70 232 0.0 0.9 0.00 0.00 0.00 90 1013.9
20260507062241 71 171 0.0 0.9 0.00 0.00 0.00 90 1013.8
20260507061734 71 175 0.0 0.9 0.00 0.00 0.00 90 1013.9
20260507061203 71 175 0.0 0.9 0.00 0.00 0.00 90 1014.0
20260507060918 71 175 0.0 0.9 0.00 0.00 0.00 90 1014.1
20260507060146 71 170 0.0 0.0 0.00 0.00 0.00 90 1014.3
20260507055644 71 170 0.0 0.0 0.00 0.00 0.00 90 1014.3
20260507055144 71 170 0.0 0.9 0.00 0.00 0.00 90 1014.3
20260507054645 71 170 0.0 0.9 0.00 0.00 0.00 90 1014.3
20260507054144 71 170 0.0 0.9 0.00 0.00 0.00 89 1014.4
20260507053643 71 170 0.0 0.0 0.00 0.00 0.00 89 1014.5
20260507053138 71 169 0.0 1.7 0.00 0.00 0.00 89 1014.6
20260507052635 71 169 0.9 1.7 0.00 0.00 0.00 89 1014.5
20260507052134 71 156 0.9 1.7 0.00 0.00 0.00 89 1014.4
20260507051628 71 143 0.9 1.7 0.00 0.00 0.00 89 1014.6
20260507051124 71 138 0.9 2.6 0.00 0.00 0.00 88 1014.5
20260507050618 71 131 1.7 2.6 0.00 0.00 0.00 88 1014.5
20260507050118 71 164 0.9 2.6 0.00 0.00 0.00 87 1014.7
20260507045618 71 267 0.9 1.7 0.00 0.00 0.00 87 1014.7
20260507045112 71 242 0.9 1.7 0.00 0.00 0.00 87 1014.8
20260507044602 72 255 0.9 2.6 0.00 0.00 0.00 87 1014.9
20260507044333 72 270 0.9 2.6 0.00 0.00 0.00 86 1014.8
20260507043548 72 243 0.9 1.7 0.00 0.00 0.00 86 1014.7
20260507043048 72 176 0.9 2.6 0.00 0.00 0.00 86 1014.6
20260507042819 72 134 1.7 2.6 0.00 0.00 0.00 85 1014.5
20260507042049 73 140 0.9 2.6 0.00 0.00 0.00 85 1014.7
20260507041546 73 128 0.0 1.7 0.00 0.00 0.00 85 1014.8
20260507041044 73 121 0.9 1.7 0.00 0.00 0.00 85 1014.7
20260507040545 73 164 0.9 1.7 0.00 0.00 0.00 85 1014.6
20260507040058 73 141 0.9 1.7 0.00 0.00 0.00 84 1014.5
20260507035542 74 144 0.9 2.6 0.00 0.00 0.00 83 1014.4
20260507035037 74 142 1.7 2.6 0.00 0.00 0.00 83 1014.5
20260507034534 74 147 1.7 2.6 0.00 0.00 0.00 82 1014.4
20260507034033 74 137 1.7 2.6 0.00 0.00 0.00 82 1014.5
20260507033533 75 151 1.7 2.6 0.00 0.00 0.00 82 1014.4
20260507033304 75 125 1.7 2.6 0.00 0.00 0.00 82 1014.4
20260507032532 75 126 1.7 2.6 0.00 0.00 0.00 81 1014.4
20260507032253 75 137 1.7 3.5 0.00 0.00 0.00 81 1014.4
20260507031521 75 128 1.7 3.5 0.00 0.00 0.00 81 1014.5
20260507031019 75 123 2.6 3.5 0.00 0.00 0.00 80 1014.5
20260507030752 75 143 2.6 4.3 0.00 0.00 0.00 80 1014.5
20260507030014 75 133 1.7 4.3 0.00 0.00 0.00 80 1014.6
20260507025510 75 123 1.7 3.5 0.00 0.00 0.00 79 1014.6
20260507025010 76 131 2.6 4.3 0.00 0.00 0.00 79 1014.6
20260507024510 76 111 1.7 4.3 0.00 0.00 0.00 78 1014.7
20260507024008 76 133 1.7 3.5 0.00 0.00 0.00 79 1014.7
20260507023508 76 112 1.7 2.6 0.00 0.00 0.00 78 1014.7
20260507023006 76 131 1.7 2.6 0.00 0.00 0.00 78 1014.7
20260507022504 76 132 1.7 2.6 0.00 0.00 0.00 77 1014.8
20260507022004 77 149 1.7 3.5 0.00 0.00 0.00 77 1014.7
20260507021504 77 137 2.6 3.5 0.00 0.00 0.00 75 1014.7
20260507021233 77 133 2.6 3.5 0.00 0.00 0.00 74 1014.7
20260507020734 77 118 2.6 4.3 0.00 0.00 0.00 74 1014.5
20260507020002 77 109 2.6 4.3 0.00 0.00 0.00 74 1014.6
20260507015458 77 123 1.7 2.6 0.00 0.00 0.00 74 1014.5
20260507015229 77 121 1.7 3.5 0.00 0.00 0.00 73 1014.5
20260507014459 77 116 2.6 3.5 0.00 0.00 0.00 73 1014.5
20260507013958 77 119 2.6 4.3 0.00 0.00 0.00 72 1014.5
20260507013456 77 97 2.6 5.2 0.00 0.00 0.00 72 1014.5
20260507012955 77 123 1.7 5.2 0.00 0.00 0.00 72 1014.5
20260507012454 77 126 1.7 4.3 0.00 0.00 0.00 72 1014.3
20260507012224 78 117 2.6 4.3 0.00 0.00 0.00 72 1014.4
20260507011501 78 113 1.7 4.3 0.00 0.00 0.00 71 1014.4
20260507011446 78 118 1.7 3.5 0.00 0.00 0.00 71 1014.3
20260507010717 78 108 2.6 6.1 0.00 0.00 0.00 71 1014.4
20260507005946 78 126 2.6 6.1 0.00 0.00 0.00 70 1014.4
20260507005716 78 104 3.5 5.2 0.00 0.00 0.00 70 1014.4
20260507004943 78 125 3.5 7.8 0.00 0.00 0.00 70 1014.3
20260507004438 78 120 2.6 7.8 0.00 0.00 0.00 69 1014.3
20260507003937 78 114 3.5 8.7 0.00 0.00 0.00 68 1014.2
20260507003708 78 111 3.5 8.7 0.00 0.00 0.00 68 1014.3
20260507002933 79 109 3.5 7.8 0.00 0.00 0.00 68 1014.2
20260507002430 79 96 3.5 8.7 0.00 0.00 0.00 67 1014.2
20260507001925 79 109 3.5 8.7 0.00 0.00 0.00 67 1014.2
20260507001418 79 114 3.5 8.7 0.00 0.00 0.00 67 1014.3
20260507001147 79 115 3.5 8.7 0.00 0.00 0.00 66 1014.2
20260507000412 80 92 3.5 8.7 0.00 0.00 0.00 65 1014.2
20260507000142 80 118 4.3 8.7 0.00 0.00 0.00 64 1014.2
20260506235410 80 112 3.5 6.1 0.00 0.00 0.00 63 1014.1
20260506235142 80 104 3.5 7.8 0.00 0.00 0.00 62 1014.0
20260506234410 80 98 3.5 7.8 0.00 0.00 0.00 62 1014.1
20260506233907 81 113 4.3 9.6 0.00 0.00 0.00 60 1014.2
20260506233405 81 117 4.3 9.6 0.00 0.00 0.00 59 1014.1
20260506232906 82 97 3.5 8.7 0.00 0.00 0.00 58 1014.1
20260506232405 82 113 4.3 8.7 0.00 0.00 0.00 58 1014.2
20260506231904 82 109 4.3 8.7 0.00 0.00 0.00 56 1014.1
20260506231404 83 111 5.2 9.6 0.00 0.00 0.00 54 1014.2
20260506231144 82 88 6.1 10.4 0.00 0.00 0.00 54 1014.2
20260506230402 83 116 6.1 10.4 0.00 0.00 0.00 54 1014.2
20260506225901 83 107 5.2 11.3 0.00 0.00 0.00 53 1014.2
20260506225401 83 132 5.2 11.3 0.00 0.00 0.00 53 1014.2
20260506224900 83 112 5.2 11.3 0.00 0.00 0.00 51 1014.1
20260506224357 83 105 5.2 10.4 0.00 0.00 0.00 53 1014.1
20260506223855 83 113 6.1 10.4 0.00 0.00 0.00 52 1014.0
20260506223353 84 108 5.2 9.6 0.00 0.00 0.00 50 1014.0
20260506222853 84 116 4.3 9.6 0.00 0.00 0.00 51 1014.1
20260506222345 84 112 5.2 10.4 0.00 0.00 0.00 47 1014.0
20260506221846 85 122 5.2 11.3 0.00 0.00 0.00 48 1014.0
20260506221346 85 75 4.3 11.3 0.00 0.00 0.00 48 1014.0
20260506221113 85 80 5.2 12.2 0.00 0.00 0.00 47 1013.9
20260506220340 85 92 6.1 13.0 0.00 0.00 0.00 48 1013.9
20260506215839 85 105 4.3 13.0 0.00 0.00 0.00 47 1013.9
20260506215334 86 105 4.3 9.6 0.00 0.00 0.00 47 1013.9
20260506215105 86 105 4.3 10.4 0.00 0.00 0.00 48 1013.9
20260506214604 86 112 4.3 10.4 0.00 0.00 0.00 49 1013.9
20260506213833 87 109 3.5 8.7 0.00 0.00 0.00 48 1013.8
20260506213333 86 87 4.3 9.6 0.00 0.00 0.00 47 1013.8
20260506212829 86 108 6.1 13.0 0.00 0.00 0.00 49 1013.8
20260506212329 86 113 6.1 13.0 0.00 0.00 0.00 46 1013.8
20260506211825 87 123 4.3 12.2 0.00 0.00 0.00 43 1013.8
20260506211323 87 89 5.2 9.6 0.00 0.00 0.00 46 1013.8
20260506210819 87 117 5.2 11.3 0.00 0.00 0.00 44 1013.9
20260506210318 87 130 5.2 12.2 0.00 0.00 0.00 38 1013.9
20260506205815 87 80 4.3 12.2 0.00 0.00 0.00 41 1013.9
20260506205314 87 92 3.5 9.6 0.00 0.00 0.00 44 1013.8
20260506205045 87 93 5.2 11.3 0.00 0.00 0.00 42 1013.8
20260506204313 87 91 6.1 11.3 0.00 0.00 0.00 41 1013.8
20260506204042 87 96 4.3 9.6 0.00 0.00 0.00 40 1013.8
20260506203307 88 86 4.3 10.4 0.00 0.00 0.00 43 1013.8
20260506202805 87 133 5.2 10.4 0.00 0.00 0.00 40 1013.9
20260506202306 88 117 4.3 10.4 0.00 0.00 0.00 42 1014.0
20260506201803 88 121 4.3 10.4 0.00 0.00 0.00 39 1014.0
20260506201301 88 103 6.1 11.3 0.00 0.00 0.00 38 1014.0
20260506200759 88 122 6.1 11.3 0.00 0.00 0.00 38 1014.0
20260506200259 89 114 4.3 10.4 0.00 0.00 0.00 38 1014.0